Location: Festilli
(46.4000°N, 11.6667°E)
Time: 18:38:31
(UTC+00:00)

CZ-2C R/B - Pass Details

Date: 03 March 2021
Orbit: 783 x 871 km, 98.2° (Epoch: 15 April)

Event Time Altitude Azimuth Distance (km) Brightness Sun altitude
Rises 18:00:26 0° 17° (NNE) 3,432 5.7 -10.8°
Reaches altitude 10° 18:02:55 10° 22° (NNE) 2,480 4.9 -11.2°
Maximum altitude 18:08:17 53° 99° (E) 1,016 2.8 -12.1°
Drops below altitude 10° 18:13:30 10° 176° (S) 2,406 5.0 -13.0°
Sets 18:15:52 0° 181° (S) 3,320 5.8 -13.5°
